Gold Coast Seaway Observation History
Time Wind Speed Temp Pressure Rel. Hum Rain
30/09:30am ENE 3-5 kts 25.6°c 1017.1 hPa 66% 0.0mm
30/09:00am ESE 4-5 kts 25.2°c 1017.1 hPa 68% 0.0mm
30/08:30am CALM 0 kts 24.5°c 1017.1 hPa 72% 0.0mm
30/08:00am W 1-4 kts 22.6°c 1017.2 hPa 75% 0.0mm
30/07:30am WSW 5 kts 21.4°c 1017.0 hPa 81% 0.0mm
30/07:00am SW 5-7 kts 20.2°c 1016.6 hPa 85% 0.0mm
30/06:30am WSW 5-7 kts 19.6°c 1016.3 hPa 86% 0.0mm
30/06:00am SW 7-8 kts 19.4°c 1016.1 hPa 87% 0.0mm
30/05:30am SW 6-8 kts 19.4°c 1016.0 hPa 87% 0.0mm
30/05:00am SW 6-7 kts 19.6°c 1015.9 hPa 87% 0.0mm
30/04:30am SW 6-7 kts 19.6°c 1015.8 hPa 87% 0.0mm
30/04:00am WSW 5-6 kts 19.6°c 1016.0 hPa 87% 0.0mm
30/03:30am WSW 5-6 kts 19.9°c 1016.1 hPa 87% 0.0mm
30/03:00am WSW 5-6 kts 20.0°c 1016.3 hPa 87% 0.0mm
30/02:30am SW 4-5 kts 19.9°c 1016.4 hPa 86% 0.0mm
30/02:00am SW 5-6 kts 20.2°c 1016.9 hPa 85% 0.0mm
30/01:30am SW 5-7 kts 20.5°c 1017.2 hPa 86% 0.0mm
30/01:00am WSW 5-6 kts 20.5°c 1017.4 hPa 86% 0.0mm
30/12:30am WSW 5-6 kts 20.9°c 1017.6 hPa 86% 0.0mm
30/12:00am WSW 5-6 kts 21.0°c 1017.7 hPa 85% 0.0mm
Time Wind Speed Temp Pressure Rel. Hum Rain
29/11:30pm SW 4-6 kts 21.2°c 1017.9 hPa 84% 0.0mm
29/11:00pm SSW 6-7 kts 20.9°c 1018.1 hPa 83% 0.0mm
29/10:30pm SSW 5-6 kts 21.2°c 1018.2 hPa 82% 0.0mm
29/10:00pm S 5-6 kts 21.5°c 1018.5 hPa 81% 0.0mm
29/09:30pm SW 5-6 kts 22.2°c 1018.7 hPa 82% 0.0mm
29/09:00pm E 5-7 kts 22.6°c 1018.7 hPa 79% 0.0mm
29/08:30pm SE 11-15 kts 22.4°c 1018.6 hPa 82% 0.0mm
29/08:00pm ESE 9-10 kts 23.7°c 1018.3 hPa 73% 0.0mm
29/07:30pm ESE 9-10 kts 24.0°c 1018.1 hPa 72% 0.0mm
29/07:00pm ESE 9-10 kts 23.9°c 1018.1 hPa 72% 0.0mm
29/06:30pm ESE 10-14 kts 23.8°c 1017.5 hPa 74% 0.0mm
29/06:00pm ESE 11-14 kts 23.9°c 1017.4 hPa 73% 0.0mm
29/05:30pm ESE 10-13 kts 24.1°c 1017.2 hPa 71% 0.0mm
29/05:00pm ESE 11-13 kts 24.3°c 1016.9 hPa 72% 0.0mm
29/04:30pm ESE 10-12 kts 24.8°c 1016.7 hPa 66% 0.0mm
29/04:00pm SE 10-12 kts 25.0°c 1016.7 hPa 69% 0.0mm
29/03:30pm SE 11-13 kts 25.6°c 1016.7 hPa 70% 0.0mm
29/03:00pm ESE 10-13 kts 25.4°c 1016.8 hPa 70% 0.0mm
29/02:30pm E 9-11 kts 25.1°c 1016.8 hPa 67% 0.0mm
29/02:00pm ESE 10-12 kts 25.8°c 1017.0 hPa 66% 0.0mm
29/01:30pm ESE 12-14 kts 26.3°c 1017.1 hPa 65% 0.0mm
29/01:00pm ESE 10-11 kts 26.5°c 1017.3 hPa 60% 0.0mm
29/12:30pm SE 9-10 kts 26.4°c 1017.5 hPa 61% 0.0mm
29/12:00pm SE 10-11 kts 26.6°c 1018.0 hPa 66% 0.0mm
29/11:30am SSE 10-13 kts 27.3°c 1018.5 hPa 64% 0.0mm
29/11:00am SSE 10-13 kts 26.9°c 1018.8 hPa 65% 0.0mm
29/10:30am SSE 12-15 kts 26.1°c 1019.0 hPa 63% 0.0mm
29/10:00am SSE 14-16 kts 25.6°c 1019.2 hPa 65% 0.0mm
29/09:30am SSE 15-19 kts 25.5°c 1019.4 hPa 70% 0.0mm
29/09:00am SSE 14-17 kts 25.2°c 1019.6 hPa 70% 4.2mm
29/08:30am SSE 6-10 kts 23.7°c 1019.6 hPa 74% 4.2mm
29/08:00am SSW 5-8 kts 22.2°c 1019.4 hPa 77% 4.2mm
29/07:30am SSW 5-7 kts 20.7°c 1019.1 hPa 84% 4.2mm
29/07:00am S 7-9 kts 19.9°c 1018.6 hPa 83% 4.2mm
29/06:30am SSW 7-9 kts 20.2°c 1018.5 hPa 84% 4.2mm
29/06:00am SSW 7-10 kts 19.9°c 1018.2 hPa 84% 4.2mm
29/05:30am SSW 7-10 kts 19.8°c 1017.7 hPa 86% 4.2mm
29/05:00am SW 6-9 kts 19.9°c 1017.3 hPa 86% 4.2mm
29/04:30am SSW 7-9 kts 20.2°c 1017.3 hPa 86% 4.2mm
29/04:00am SSW 8-9 kts 20.2°c 1017.4 hPa 86% 4.2mm
29/03:30am SSW 8-10 kts 20.5°c 1017.5 hPa 86% 4.2mm
29/03:00am S 8-11 kts 20.5°c 1017.5 hPa 86% 4.0mm
29/02:30am SSW 7-10 kts 20.5°c 1017.5 hPa 86% 4.0mm
29/02:00am SSW 6-8 kts 20.7°c 1017.8 hPa 87% 4.0mm
29/01:30am SW 5-6 kts 20.9°c 1018.0 hPa 86% 4.0mm
29/01:00am SSW 6-7 kts 21.2°c 1018.3 hPa 84% 4.0mm
29/12:30am S 4-7 kts 21.9°c 1018.7 hPa 82% 4.0mm
29/12:00am ENE 6-7 kts 22.4°c 1018.6 hPa 78% 4.0mm
Time Wind Speed Temp Pressure Rel. Hum Rain
28/11:30pm E 8-10 kts 22.6°c 1018.9 hPa 78% 4.0mm
28/11:00pm E 9-14 kts 22.7°c 1019.0 hPa 75% 4.0mm
28/10:30pm E 12-14 kts 22.9°c 1019.2 hPa 78% 4.0mm
28/10:00pm ENE 15-18 kts 23.1°c 1019.4 hPa 81% 4.0mm
28/09:30pm E 18-21 kts 22.6°c 1019.7 hPa 81% 4.0mm
28/09:00pm ESE 16-19 kts 22.8°c 1019.4 hPa 85% 4.0mm
28/08:30pm SE 14-16 kts 21.9°c 1019.4 hPa 85% 4.0mm
28/08:00pm SSE 13-20 kts 22.6°c 1019.1 hPa 86% 3.0mm
28/07:55pm S 15-20 kts 22.4°c 1019.1 hPa 83% 2.0mm
28/07:30pm SSE 8-10 kts 23.1°c 1018.9 hPa 76% 0.4mm
28/07:00pm SE 9-10 kts 23.2°c 1018.9 hPa 76% 0.4mm
28/06:30pm SE 10-13 kts 23.3°c 1018.7 hPa 77% 0.4mm
28/06:00pm SSE 7-8 kts 22.8°c 1018.4 hPa 73% 0.4mm
28/05:30pm ESE 8-9 kts 23.5°c 1018.2 hPa 73% 0.4mm
28/05:00pm ESE 11-13 kts 23.3°c 1018.0 hPa 71% 0.4mm
28/04:30pm E 16-18 kts 24.0°c 1017.8 hPa 71% 0.4mm
28/04:00pm SE 15-17 kts 25.9°c 1017.6 hPa 68% 0.4mm
28/03:30pm SE 13-15 kts 26.0°c 1017.7 hPa 65% 0.4mm
28/03:00pm SE 10-12 kts 26.0°c 1017.6 hPa 61% 0.4mm
28/02:30pm SE 14-17 kts 26.4°c 1017.7 hPa 63% 0.4mm
28/02:00pm SE 15-17 kts 26.3°c 1017.9 hPa 63% 0.4mm
28/01:30pm SE 15-18 kts 27.3°c 1018.1 hPa 61% 0.4mm
28/01:00pm SE 14-18 kts 27.3°c 1018.5 hPa 61% 0.4mm
28/12:30pm SE 15-17 kts 27.2°c 1018.8 hPa 60% 0.4mm
28/12:00pm SSE 15-17 kts 27.0°c 1019.2 hPa 60% 0.4mm
28/11:30am SSE 13-16 kts 26.8°c 1019.7 hPa 60% 0.4mm
28/11:00am SSE 11-14 kts 26.8°c 1020.0 hPa 63% 0.4mm
28/10:30am S 10-13 kts 25.7°c 1020.2 hPa 65% 0.2mm
28/10:00am S 15-20 kts 23.3°c 1020.3 hPa 74% 0.2mm
28/09:30am SSE 18-22 kts 22.9°c 1020.6 hPa 71% 0.2mm
28/09:00am SSE 15-19 kts 25.8°c 1020.4 hPa 63% 0.6mm
28/08:30am S 15-19 kts 24.7°c 1020.2 hPa 63% 0.6mm
28/08:00am S 12-16 kts 24.4°c 1019.9 hPa 63% 0.6mm
28/07:30am S 14-18 kts 22.8°c 1019.8 hPa 67% 0.6mm
28/07:00am S 15-18 kts 21.7°c 1019.5 hPa 71% 0.6mm
28/06:30am S 9-14 kts 20.7°c 1019.3 hPa 73% 0.6mm
28/06:00am S 11-16 kts 20.2°c 1019.1 hPa 74% 0.6mm
28/05:30am S 14-21 kts 20.4°c 1018.9 hPa 74% 0.6mm
28/05:00am S 11-15 kts 20.3°c 1018.8 hPa 74% 0.6mm
28/04:30am S 12-17 kts 20.4°c 1018.7 hPa 74% 0.6mm
28/04:00am S 13-16 kts 20.3°c 1018.5 hPa 74% 0.6mm
28/03:30am S 13-17 kts 20.5°c 1018.5 hPa 74% 0.6mm
28/03:00am S 13-18 kts 20.4°c 1018.3 hPa 75% 0.6mm
28/02:30am S 15-20 kts 20.5°c 1018.6 hPa 76% 0.6mm
28/02:00am S 13-19 kts 20.4°c 1019.0 hPa 76% 0.6mm
28/01:30am S 14-18 kts 20.3°c 1019.8 hPa 77% 0.6mm
28/01:00am S 15-21 kts 20.4°c 1019.9 hPa 76% 0.6mm
28/12:30am S 14-18 kts 20.3°c 1020.0 hPa 76% 0.6mm
28/12:00am S 13-18 kts 20.2°c 1020.3 hPa 75% 0.6mm